Regional Weather Roundup
Issued by NWS

Home | Current Version | Previous Version | Text Only | Print | Product List | Glossary On
Versions: 1 2 3 4 5 6 7 8 9 10 11 12 13 14 15 16 17 18 19 20 21 22 23 24 25 26 27 28 29 30 31 32 33 34 35 36 37 38 39 40 41 42 43 44 45 46 47 48 49 50
000
ASUS46 KLOX 222302
RWRCA

SOUTHERN CALIFORNIA WEATHER ROUNDUP
NATIONAL WEATHER SERVICE OXNARD CALIFORNIA
400 PM PDT MON SEP 22 2014

NOTE: "FAIR" INDICATES FEW OR NO CLOUDS BELOW 12,000 FEET WITH NO
SIGNIFICANT WEATHER AND/OR OBSTRUCTIONS TO VISIBILITY.

  -  STATIONS PRECEEDED BY AN ASTERISK (*) ARE NOT NWS OR FAA
     STATIONS AND ARE NOT SUBJECT TO NWS AND FAA QUALITY CONTROL.

CAZ041-042-087-230000-
LA AND ORANGE COUNTY COASTAL AREAS


CITY           SKY/WX    TMP DP  RH WIND       PRES   REMARKS
L.A. DOWNTOWN  SUNNY     77  61  57 VRB3      29.92F
L.A. AIRPORT   MOSUNNY   72  63  73 W13       29.93F
LONG BEACH     SUNNY     82  63  52 NW7       29.91F

CITY           SKY/WX    TMP DP  RH WIND       PRES   REMARKS
AVALON           N/A     72 N/A N/A N3          N/A
FULLERTON      SUNNY     82  62  50 S7        29.90F
*GETTY CENTER    N/A     75  63  64 S8          N/A
HAWTHORNE      SUNNY     75  63  66 W8        29.93F
*LOS ALAMITOS  FAIR      79  63  57 S9        29.91F
*REDONDO BEACH   N/A     76  64  67 W1        29.92F
SANTA ANA      SUNNY     79  63  57 SW8       29.92F
STA MONICA APT SUNNY     74  62  66 SW10      29.93F
TORRANCE       MOSUNNY   77  64  65 W17       29.92F
*UCLA            N/A    N/A N/A N/A S7        29.90F

$$

CAZ547-548-048-230000-
LA COUNTY VALLEYS AND INLAND EMPIRE


CITY           SKY/WX    TMP DP  RH WIND       PRES   REMARKS
BURBANK        SUNNY     84  56  38 S7        29.91F
VAN NUYS       SUNNY     89  51  27 SE10      29.90F

CITY           SKY/WX    TMP DP  RH WIND       PRES   REMARKS
CORONA AIRPORT CLEAR     86  62  44 W13       29.90F
*CHATSWORTH      N/A     88  61  39 NW9       29.86F
CHINO          SUNNY     88  59  37 W14       29.92F
MARCH AFB      SUNNY     90  54  29 NW13      29.94F
*NORTHRIDGE      N/A     90  46  22 E3G10       N/A
ONTARIO        SUNNY     90  56  31 W13       29.91F
*PASADENA        N/A     86  63  45 CALM        N/A
RIVERSIDE      SUNNY     88  58  36 W8G17     29.91F
SAN BERNARDINO SUNNY     91  46  21 SW10      29.92F
*SAN GABRIEL     N/A     83  57  40 CALM      29.87F
*WHITEMAN AP   SUNNY     86  54  32 SE9       29.95F
*WOODLAND HILL   N/A     91  54  27 E7          N/A

$$

CAZ054-055-230000-
LA AND SAN BERNARDINO COUNTY MOUNTAINS


CITY           SKY/WX    TMP DP  RH WIND       PRES   REMARKS
*ACTON           N/A     93  40  15 SW10        N/A
*BIG BEAR AIRP CLEAR     72  32  23 N8        30.27S
*BIG PINES       N/A     74  34  22 S2          N/A
MT WILSON NWS    N/A     79  36  21 MISG        N/A
SANDBERG       SUNNY     85  34  16 S14G21    30.12F

$$

CAZ028-029-059-060-099-230000-
ANTELOPE VALLEY AND SURROUNDING AREAS


CITY           SKY/WX    TMP DP  RH WIND       PRES   REMARKS
LANCASTER      SUNNY     92  37  14 NW5       29.96F
PALMDALE       SUNNY     92  35  13 NW6       29.97F

CITY           SKY/WX    TMP DP  RH WIND       PRES   REMARKS
29 PALMS       SUNNY     95  37  13 NE7       29.99F HX  90
BARSTOW/DAGGET SUNNY     96  31  10 N6        29.93F HX  90
BISHOP         SUNNY     89  37  16 S13       30.02F
CHINA LAKE     SUNNY     92  40  16 SW6       29.94F
EDWARDS AFB    SUNNY     92  31  11 VRB1      29.94F
MOJAVE         FAIR      90  28  11 SE7       29.99F
NEEDLES        SUNNY    101  35  10 S6        29.86F HX  95
VICTORVILLE    SUNNY     91  25   9 S3        29.99F

$$

CAZ039-040-230000-
VENTURA AND SANTA BARBARA COUNTY COAST


CITY           SKY/WX    TMP DP  RH WIND       PRES   REMARKS
CAMARILLO      SUNNY     80  61  52 SW8       29.92F
NWS OXNARD       N/A     77  62  59 W3        29.92F
OXNARD AIRPORT SUNNY     73  62  68 W10       29.92F
*POINT MUGU    SUNNY     77  63  61 W9        29.93F
SBA APT/GOLETA SUNNY     76  60  57 SW8       29.92F
*SANTA BARBARA   N/A     82  59  45 CALM      29.99F
*VENTURA         N/A     78  61  55 SW8       29.96F

$$

CAZ044-045-230000-
VENTURA COUNTY VALLEYS


CITY           SKY/WX    TMP DP  RH WIND       PRES   REMARKS
*SIMI VALLEY     N/A     83  60  45 W3        29.88F
*OJAI            N/A     92  60  34 W2        29.84F HX  91
*FILLMORE        N/A     86  60  41 CALM      29.81F

$$

CAZ053-230000-
VENTURA COUNTY MOUNTAINS


CITY           SKY/WX    TMP DP  RH WIND       PRES   REMARKS
*LOCKWOOD VLY    N/A     79  28  15 MISG        N/A
*ROSE VALLEY     N/A     84  55  37 MISG        N/A

$$

CAZ034-035-036-230000-
CENTRAL COAST AND SANTA YNEZ VALLEY


CITY           SKY/WX    TMP DP  RH WIND       PRES   REMARKS
SAN LUIS OBISP SUNNY     75  59  57 NW18      29.94F
SANTA MARIA    SUNNY     74  59  59 NW16      29.96F

CITY           SKY/WX    TMP DP  RH WIND       PRES   REMARKS
*CAL POLY SLO    N/A     77  63  61 W7          N/A
*LOMPOC        SUNNY     70  57  64 W17       29.98R
*PISMO BEACH     N/A     68  62  81 SW7       29.96S
*SANTA YNEZ    FAIR      82  55  39 W15       29.93S

$$

CAZ037-038-051-230000-
SAN LUIS OBISPO COUNTY INTERIOR AND CUYAMA VALLEY


CITY           SKY/WX    TMP DP  RH WIND       PRES   REMARKS
*CUYAMA          N/A     85  51  30 NE8       29.86F
PASO ROBLES    SUNNY     91  48  22 CALM      29.91F

$$

CAZ032-033-061-230000-
SOUTHERN DESERTS


CITY           SKY/WX    TMP DP  RH WIND       PRES   REMARKS
BLYTHE         SUNNY    101  42  13 CALM      29.83F HX  96
IMPERIAL       SUNNY    101  52  19 CALM      29.80F HX  98
PALM SPRINGS   SUNNY    100  40  12 VRB5      29.85F HX  95
THERMAL        SUNNY    100  44  14 SE12      29.79F HX  96

$$

ELSEWHERE ACROSS THE WESTERN UNITED STATES AND MEXICO


CITY           SKY/WX    TMP DP  RH WIND       PRES   REMARKS
DENVER, CO     PTSUNNY   79  46  31 N10       30.10F
GRAND CANYON,  MOSUNNY   76  40  27 SW8G20    30.27F
HONOLULU, HI   MOSUNNY   92  66  42 E17G24    30.00F HX  94
KAHULUI, MAUI  MOSUNNY   90  71  53 NE24G32   30.00F HX  96
LAKE TAHOE, CA PTSUNNY   76  41  28 VRB3      30.19F HAZE
LAS VEGAS, NV  MOSUNNY   95  41  15 E8        29.90F HX  91
MAMMOTH LAKES, FAIR      75  34  22 SE9       30.24F
MEXICO CITY, M TSTM      61  57  88 E6        30.26R
PHOENIX, AZ    MOSUNNY  100  51  19 NW12      29.86F HX  97
PORTLAND, OR   PTSUNNY   70  55  59 NE5       29.96F
RENO, NV       MOSUNNY   84  41  21 VRB3      30.04F
SALT LAKE CITY PTSUNNY   75  51  43 NW3       30.10F
SAN DIEGO, CA  MOSUNNY   76  63  64 W14       29.93F
SAN FRANCISCO, MOSUNNY   73  58  59 W23G30    29.98F
SAN JOSE, CA   MOSUNNY   76  56  49 NW12      29.95F
SEATTLE, WA    PTSUNNY   70  54  56 VRB5      29.98S
TIJUANA, MEX   SUNNY     77  59  53 W15       29.94F

$$

STATION/POSITION TIME  TEMP    WIND        PRES    VSBY  WAVE
                       AIR SEA DIR/SP/G                  HT/PER
                 (UTC) (F)     (DEG/KT/KT) (MB)    (MI)  (FT/S)
POINT ARGUELLO B NOT AVBL
WEST SANTA BARBA 2200   63 62  320/ 17/ 21 1013.5F         5/12
POINT CONCEPTION NOT AVBL
EAST SANTA BARBA 2200   66 68  270/ 12/ 12 1014.1F
SANTA MONICA BAY 2100   68 74  250/  4/  6 1014.5F         2/14


USA.gov is the U.S. government's official web portal to all federal, state and local government web resources and services.